Middlebury State AP, Middlebu, VT

12:41 PM EDT on May 27, 2018 (GMT -0400)
Middlebury State AP, Middlebu

Weather History for K6B0 - April, 2014

Change the Weather History Date:

Monday, April 21, 2014

  Actual Average (KRUT) Record (KRUT)
Temperature  
Mean Temperature 60 °F -  
Max Temperature 72 °F 61 °F 82 °F (1954)
Min Temperature 48 °F 36 °F 22 °F (1981)
Degree Days  
Heating Degree Days 5    
Growing Degree Days 10 (Base 50)    
Moisture  
Dew Point 26 °F    
Average Humidity 29    
Maximum Humidity 40    
Minimum Humidity 18    
Precipitation  
Precipitation 0.00 in - - ()
Sea Level Pressure  
Sea Level Pressure 30.00 in    
Wind  
Wind Speed 7 mph (ESE)    
Max Wind Speed 15 mph    
Max Gust Speed 18 mph    
Visibility 10 miles    
Events      
Averages and records for this station are not official NWS values.
T = Trace of Precipitation, MM = Missing Value Source: NWS Daily Summary

Daily Weather History Graph

Daily Weather History Graph

Search for Another Location

Airport or City:

Astronomy

Apr. 21, 2014 Rise Set
Actual Time 5:59 AM EDT 7:43 PM EDT
Civil Twilight 5:28 AM EDT 8:14 PM EDT
Nautical Twilight 4:51 AM EDT 8:51 PM EDT
Astronomical Twilight 4:11 AM EDT 9:32 PM EDT
Moon 1:14 AM EDT (4/21) 11:20 AM EDT (4/21)
Length of Visible Light 14h 45m
Length of Day
13h 44m
Waning Gibbous, 58% of the Moon is Illuminated
Apr 21
Waning Gibbous
Apr 22
Last Quarter
Apr 29
New
May 6
First Quarter
May 14
Full

Hourly Weather History & Observations

Time (EDT) Temp. Dew Point Humidity Pressure Visibility Wind Dir Wind Speed Gust Speed Precip Events Conditions
12:15 AM 53.6 °F 19.4 °F 26% 30.22 in 10.0 mi ESE 4.6 mph - N/A   Clear
12:35 AM 52.0 °F 21.6 °F 30% 30.22 in 10.0 mi East 4.6 mph - N/A   Mostly Cloudy
12:55 AM 53.2 °F 20.5 °F 28% 30.22 in 10.0 mi ESE 5.8 mph - N/A   Scattered Clouds
1:15 AM 52.2 °F 21.2 °F 30% 30.21 in 10.0 mi East 3.5 mph - N/A   Scattered Clouds
1:35 AM 51.6 °F 22.1 °F 32% 30.20 in 10.0 mi ESE 9.2 mph - N/A   Scattered Clouds
1:55 AM 51.1 °F 22.1 °F 32% 30.19 in 10.0 mi ESE 4.6 mph - N/A   Clear
2:15 AM 50.4 °F 22.6 °F 34% 30.18 in 10.0 mi East 3.5 mph - N/A   Clear
2:35 AM 50.4 °F 22.6 °F 34% 30.18 in 10.0 mi East 4.6 mph - N/A   Scattered Clouds
2:55 AM 50.0 °F 23.0 °F 35% 30.18 in 10.0 mi ESE 4.6 mph - N/A   Clear
3:15 AM 50.0 °F 23.0 °F 35% 30.17 in 10.0 mi ESE 5.8 mph - N/A   Clear
3:35 AM 50.0 °F 23.5 °F 36% 30.17 in 10.0 mi ESE 5.8 mph - N/A   Clear
3:55 AM 50.0 °F 23.5 °F 36% 30.16 in 10.0 mi ESE 6.9 mph - N/A   Scattered Clouds
4:15 AM 49.8 °F 24.1 °F 37% 30.16 in 10.0 mi ESE 5.8 mph - N/A   Scattered Clouds
4:35 AM 49.5 °F 24.6 °F 38% 30.15 in 10.0 mi ESE 8.1 mph - N/A   Mostly Cloudy
4:55 AM 49.1 °F 24.3 °F 38% 30.14 in 10.0 mi ESE 8.1 mph - N/A   Overcast
5:15 AM 49.3 °F 24.4 °F 38% 30.14 in 10.0 mi ESE 9.2 mph - N/A   Overcast
5:35 AM 49.1 °F 24.8 °F 39% 30.14 in 10.0 mi ESE 9.2 mph - N/A   Overcast
5:55 AM 49.1 °F 24.8 °F 39% 30.14 in 10.0 mi ESE 9.2 mph - N/A   Overcast
6:15 AM 48.7 °F 25.5 °F 40% 30.14 in 10.0 mi ESE 8.1 mph - N/A   Overcast
6:35 AM 49.1 °F 25.3 °F 40% 30.14 in 10.0 mi East 8.1 mph - N/A   Overcast
6:55 AM 48.7 °F 25.5 °F 40% 30.14 in 10.0 mi ESE 6.9 mph - N/A   Overcast
7:15 AM 49.1 °F 25.5 °F 40% 30.14 in 10.0 mi ESE 6.9 mph - N/A   Overcast
7:35 AM 49.3 °F 25.2 °F 39% 30.13 in 10.0 mi ESE 6.9 mph - N/A   Overcast
7:55 AM 49.8 °F 25.5 °F 39% 30.13 in 10.0 mi ESE 9.2 mph - N/A   Overcast
8:15 AM 50.5 °F 24.4 °F 36% 30.13 in 10.0 mi SE 9.2 mph - N/A   Overcast
8:35 AM 51.8 °F 24.4 °F 34% 30.12 in 10.0 mi ESE 10.4 mph - N/A   Scattered Clouds
8:55 AM 52.2 °F 24.8 °F 35% 30.12 in 10.0 mi ESE 10.4 mph - N/A   Scattered Clouds
9:15 AM 52.7 °F 24.8 °F 34% 30.11 in 10.0 mi ESE 9.2 mph - N/A   Scattered Clouds
9:35 AM 53.8 °F 25.0 °F 33% 30.10 in 10.0 mi ESE 9.2 mph 18.4 mph N/A   Clear
9:55 AM 55.2 °F 25.2 °F 31% 30.09 in 10.0 mi ESE 11.5 mph 17.3 mph N/A   Scattered Clouds
10:15 AM 54.1 °F 25.5 °F 33% 30.07 in 10.0 mi ESE 9.2 mph - N/A   Mostly Cloudy
10:35 AM 55.4 °F 25.5 °F 32% 30.07 in 10.0 mi SE 9.2 mph 16.1 mph N/A   Overcast
10:55 AM 56.1 °F 26.4 °F 32% 30.07 in 10.0 mi SSE 8.1 mph - N/A   Overcast
11:15 AM 58.1 °F 27.1 °F 31% 30.05 in 10.0 mi ESE 10.4 mph - N/A   Scattered Clouds
11:35 AM 59.2 °F 27.7 °F 30% 30.03 in 10.0 mi SE 9.2 mph 17.3 mph N/A   Clear
11:55 AM 60.6 °F 27.7 °F 29% 30.02 in 10.0 mi ESE 10.4 mph - N/A   Clear
12:15 PM 62.6 °F 28.9 °F 28% 30.00 in 10.0 mi SE 6.9 mph - N/A   Mostly Cloudy
12:35 PM 62.8 °F 28.8 °F 28% 30.00 in 10.0 mi SE 11.5 mph - N/A   Overcast
12:55 PM 63.5 °F 28.8 °F 27% 29.98 in 10.0 mi SSE 8.1 mph 16.1 mph N/A   Mostly Cloudy
1:15 PM 64.6 °F 29.1 °F 26% 29.97 in 10.0 mi SSE 9.2 mph - N/A   Mostly Cloudy
1:35 PM 63.5 °F 28.6 °F 27% 29.96 in 10.0 mi SSE 6.9 mph - N/A   Scattered Clouds
1:55 PM 65.3 °F 30.0 °F 27% 29.95 in 10.0 mi SE 8.1 mph - N/A   Clear
2:15 PM 68.5 °F 30.4 °F 24% 29.94 in 10.0 mi South 9.2 mph - N/A   Clear
2:35 PM 66.7 °F 28.4 °F 24% 29.93 in 10.0 mi SSE 10.4 mph 16.1 mph N/A   Clear
2:55 PM 69.1 °F 28.4 °F 22% 29.92 in 10.0 mi SE 15.0 mph 18.4 mph N/A   Clear
3:15 PM 69.3 °F 28.8 °F 22% 29.90 in 10.0 mi SE 10.4 mph - N/A   Clear
3:35 PM 70.2 °F 28.0 °F 21% 29.88 in 10.0 mi SE 9.2 mph - N/A   Scattered Clouds
3:55 PM 69.1 °F 27.3 °F 21% 29.87 in 10.0 mi SE 11.5 mph - N/A   Clear
4:15 PM 71.2 °F 27.0 °F 19% 29.86 in 10.0 mi SE 10.4 mph 16.1 mph N/A   Clear
4:35 PM 72.0 °F 26.8 °F 19% 29.85 in 10.0 mi SE 9.2 mph 16.1 mph N/A   Clear
4:55 PM 71.8 °F 26.6 °F 19% 29.84 in 10.0 mi ESE 9.2 mph - N/A   Clear
5:15 PM 72.1 °F 26.4 °F 18% 29.84 in 10.0 mi SSE 10.4 mph - N/A   Clear
5:35 PM 71.6 °F 26.1 °F 18% 29.83 in 10.0 mi ESE 10.4 mph - N/A   Clear
5:55 PM 71.6 °F 26.6 °F 19% 29.82 in 10.0 mi SE 5.8 mph - N/A   Clear
6:15 PM 71.6 °F 26.6 °F 19% 29.82 in 10.0 mi SE 10.4 mph 16.1 mph N/A   Clear
6:35 PM 70.2 °F 27.1 °F 20% 29.81 in 10.0 mi SE 9.2 mph - N/A   Clear
6:55 PM 68.5 °F 27.9 °F 22% 29.81 in 10.0 mi SE 5.8 mph - N/A   Clear
7:15 PM 67.3 °F 28.2 °F 23% 29.81 in 10.0 mi Calm Calm - N/A   Clear
7:35 PM 63.0 °F 31.6 °F 31% 29.81 in 10.0 mi Calm Calm - N/A   Scattered Clouds
7:55 PM 63.7 °F 31.5 °F 30% 29.81 in 10.0 mi Calm Calm - N/A   Overcast
8:15 PM 63.7 °F 31.1 °F 29% 29.81 in 10.0 mi Calm Calm - N/A   Overcast
8:35 PM 65.1 °F 30.2 °F 27% 29.81 in 10.0 mi Calm Calm - N/A   Overcast
8:55 PM 65.7 °F 28.6 °F 25% 29.81 in 10.0 mi Calm Calm - N/A   Overcast
9:15 PM 65.8 °F 27.9 °F 24% 29.81 in 10.0 mi ESE 5.8 mph - N/A   Overcast
9:35 PM 65.7 °F 26.8 °F 23% 29.81 in 10.0 mi ESE 4.6 mph - N/A   Overcast
9:55 PM 65.3 °F 25.7 °F 22% 29.81 in 10.0 mi ESE 5.8 mph - N/A   Overcast
10:15 PM 64.8 °F 25.2 °F 22% 29.80 in 10.0 mi ESE 4.6 mph - N/A   Overcast
10:35 PM 65.3 °F 22.1 °F 19% 29.79 in 10.0 mi East 6.9 mph - N/A   Overcast
10:55 PM 64.9 °F 21.2 °F 19% 29.79 in 10.0 mi ESE 3.5 mph - N/A   Overcast
11:15 PM 63.7 °F 21.0 °F 20% 29.79 in 10.0 mi ESE 3.5 mph - N/A   Mostly Cloudy
11:35 PM 63.5 °F 19.8 °F 19% 29.78 in 10.0 mi ESE 4.6 mph - N/A   Overcast
11:55 PM 63.7 °F 19.2 °F 18% 29.77 in 10.0 mi ESE 4.6 mph - N/A   Overcast